Home   Weather   Market Harborough   Past weeks

Flag for United Kingdom Past Weather in Market Harborough, England, United Kingdom — Yesterday and Last 2 Weeks

Now
48 °F

Light rain. Overcast.


Feels Like: 46 °F
Forecast: 43 / 59 °F
Wind: 5 mph from North

Location: Church Lawford

Current Time: Oct 1, 2016 at 9:49:25 PM

Latest Report: Oct 1, 2016 at 9:00 PM


Visibility: 22 mi

Pressure: 29.76 "Hg

Humidity: 95%

Dew Point: 47 °F

Location of Market HarboroughLocation

Past Weather in Market Harborough — Graph

°F

Market Harborough Temperature Yesterday

Maximum temperature yesterday: 61 °F (at 1:00 PM)
Minimum temperature yesterday: 46 °F (at 7:00 AM)
Average temperature yesterday: 53 °F

High & Low Weather Summary for the Past Weeks

 TemperatureHumidityPressure
High71 °F (Sep 28, 2:00 PM)100% (Sep 21, 2:00 AM)30.26 "Hg (Sep 21, 2:00 AM)
Low44 °F (Oct 1, 7:00 AM)51% (Sep 29, 4:00 PM)29.65 "Hg (Oct 1, 3:00 PM)
Average57 °F84%30.05 "Hg
* Reported Sep 16 8:00 PM — Oct 1 8:00 PM, Market Harborough, Weather by CustomWeather, © 2016

Note: Actual official high and low records may vary slightly from our data, if they occured in-between our weather recording intervals... More about our weather records

Advertising

Market Harborough Weather History for the Previous 24 Hours

Scroll right to see more
 ConditionsComfort  
Time TempWeatherWind HumidityBarometerVisibility
8:00 PM
Sat, Oct 1
50 °FLots of rain. Overcast.7 mph94%29.74 "Hg8 mi
7:00 PM50 °FCool.6 mph92%29.71 "Hg17 mi
6:00 PM53 °FCool.3 mph84%29.69 "Hg25 mi
5:00 PM54 °FCool.3 mph77%29.67 "Hg28 mi
4:00 PM53 °FCool.5 mph83%29.66 "Hg28 mi
3:00 PM54 °FCool.5 mph87%29.65 "Hg31 mi
2:00 PM53 °FCool.2 mph93%29.67 "Hg28 mi
1:00 PM52 °FLight rain. Cloudy.2 mph93%29.67 "Hg7 mi
12:00 PM51 °FRain. Cloudy.3 mph96%29.68 "Hg4 mi
11:00 AM52 °FCool.6 mph89%29.68 "Hg19 mi
10:00 AM51 °FCool.3 mph95%29.68 "Hg12 mi
9:00 AM49 °FCool.5 mph99%29.68 "Hg12 mi
8:00 AM46 °FFog.5 mph99%29.70 "Hg3 mi
7:00 AM44 °FFog.2 mph99%29.71 "Hg4 mi
6:00 AM45 °FCool.2 mph99%29.72 "Hg8 mi
5:00 AM46 °FCool.2 mph99%29.72 "Hg11 mi
4:00 AM45 °FCool.3 mph99%29.74 "Hg12 mi
3:00 AM45 °FCool.2 mph97%29.75 "Hg9 mi
2:00 AM47 °FCool.2 mph96%29.77 "Hg12 mi
1:00 AM47 °FCool.1 mph92%29.78 "Hg16 mi
12:00 AM48 °FCool.1 mph92%29.80 "Hg22 mi
10:00 PM
Fri, Sep 30
49 °FCool.3 mph88%29.83 "Hg18 mi
9:00 PM50 °FCool.3 mph89%29.83 "Hg22 mi
Weather by CustomWeather, © 2016

See weather overviewHow to use our weather pages